This is the latest recevied weather packets stored in our database for station/object N2RDT. If no packets are shown the sender has not sent any weather packets the latest 10 day(s).
| Time | Temp. | Humidity | Pressure | Rain* | Wind** | Luminosity | Snow |
|---|---|---|---|---|---|---|---|
| 1777678149 | 12.22° C | 76% | 1013.1 hPa | 0 mm | - | 33 W/m² | - |
| 1777677846 | 12.78° C | 71% | 1013 hPa | 0 mm | - | 60 W/m² | - |
| 1777677544 | 12.78° C | 71% | 1013.1 hPa | 0 mm | - | 60 W/m² | - |
| 1777677242 | 12.78° C | 71% | 1013 hPa | 0 mm | - | 60 W/m² | - |
| 1777676940 | 12.78° C | 72% | 1013 hPa | 0 mm | - | 87 W/m² | - |
| 1777676639 | 12.78° C | 71% | 1013 hPa | 0 mm | - | 81 W/m² | - |
| 1777676335 | 12.78° C | 71% | 1013 hPa | 0 mm | - | 90 W/m² | - |
| 1777676033 | 13.33° C | 70% | 1013 hPa | 0 mm | - | 57 W/m² | - |
| 1777675729 | 13.33° C | 69% | 1013.1 hPa | 0 mm | - | 111 W/m² | - |
| 1777675426 | 13.33° C | 69% | 1013.5 hPa | 0 mm | - | 145 W/m² | - |
| 1777675123 | 13.33° C | 70% | 1013.4 hPa | 0 mm | - | 167 W/m² | - |
| 1777674819 | 12.78° C | 71% | 1013.5 hPa | 0 mm | - | 169 W/m² | - |
| 1777674515 | 13.33° C | 73% | 1013.9 hPa | 0 mm | - | 134 W/m² | - |
| 1777674213 | 13.33° C | 71% | 1013.6 hPa | 0 mm | - | 105 W/m² | - |
| 1777673909 | 12.78° C | 72% | 1013.7 hPa | 0 mm | - | 123 W/m² | - |
| 1777673606 | 13.33° C | 72% | 1013.8 hPa | 0 mm | - | 102 W/m² | - |
| 1777673305 | 13.33° C | 73% | 1013.8 hPa | 0 mm | - | 62 W/m² | - |
| 1777673001 | 13.33° C | 73% | 1013.7 hPa | 0 mm | - | 67 W/m² | - |
| 1777672698 | 13.33° C | 73% | 1013.9 hPa | 0 mm | - | 139 W/m² | - |
| 1777672393 | 13.33° C | 74% | 1013.8 hPa | 0 mm | - | 183 W/m² | - |
| 1777672089 | 13.33° C | 74% | 1013.8 hPa | 0 mm | - | 234 W/m² | - |
| 1777671785 | 12.78° C | 74% | 1013.8 hPa | 0 mm | - | 115 W/m² | - |
| 1777671481 | 12.78° C | 72% | 1013.8 hPa | 0 mm | - | 226 W/m² | - |
| 1777671177 | 12.78° C | 72% | 1013.7 hPa | 0 mm | - | 249 W/m² | - |
| 1777670874 | 12.78° C | 74% | 1013.6 hPa | 0 mm | - | 168 W/m² | - |
* Rain latest hour (hover to see other rain measurements)
** Current wind speed in m/s (hover to see current wind gust speed)